Regional Weather Roundup
Issued by NWS

Home | Current Version | Previous Version | Text Only | Print | Product List | Glossary On
Versions: 1 2 3 4 5 6 7 8 9 10 11 12 13 14 15 16 17 18 19 20 21 22 23 24 25 26 27 28 29 30 31 32 33 34 35 36 37 38 39 40 41 42 43 44 45 46 47 48 49 50
000
ASUS43 KOAX 270102
RWRNE

WEATHER ROUNDUP FOR NEBRASKA
NATIONAL WEATHER SERVICE OMAHA NE
700 PM CST SUN FEB 26 2017

NOTES: SATELLITE DATA IS BEING USED TO AUGMENT CLOUD COVER ABOVE
       12000 FEET.
       "FAIR" INDICATES FEW OR NO CLOUDS BELOW 12,000 FEET WITH NO
       SIGNIFICANT WEATHER AND/OR OBSTRUCTIONS TO VISIBILITY.

  * THESE STATIONS DO NOT REPORT WEATHER SUCH AS RAIN...SNOW OR FOG.

NEZ001>004-019>022-054>056-270200-
NEBRASKA PANHANDLE

CITY           SKY/WX    TMP DP  RH WIND       PRES   REMARKS
SCOTTSBLUFF    CLOUDY    24  11  57 CALM      29.82S
ALLIANCE       CLOUDY    17   9  70 SW9       29.82R WCI   6
CHADRON        CLOUDY    16   9  74 SW7       29.82R WCI   6
KIMBALL        CLEAR     25  17  72 SE3       29.80R
SIDNEY         CLEAR     28  15  58 CALM      29.82S
$$

NEZ057>060-069>072-079>082-270200-
SOUTHWEST NEBRASKA

CITY           SKY/WX    TMP DP  RH WIND       PRES   REMARKS
NORTH PLATTE   CLEAR     28  13  53 N3        29.90R
IMPERIAL       CLEAR     28  15  58 E7        29.87R WCI  21
LEXINGTON      CLEAR     33  16  48 W3        29.93R
MCCOOK         CLEAR     30   9  41 NE6       29.91S WCI  24
OGALLALA       CLEAR     29  15  54 CALM      29.88S
$$

NEZ005>010-023>029-035>040-094-270200-
NORTH CENTRAL NEBRASKA

CITY           SKY/WX    TMP DP  RH WIND       PRES   REMARKS
VALENTINE      CLOUDY    21  12  68 SW10      29.85R WCI  10
AINSWORTH      CLOUDY    25  17  73 SW9       29.87R WCI  15
BROKEN BOW     CLEAR     32  19  58 W5        29.90R WCI  27
O`NEILL        CLEAR     31  21  65 SW6       29.90R WCI  25
ORD            CLEAR     29  18  63 SW5       29.91R WCI  24
THEDFORD       CLOUDY    24  15  68 SW5       29.87S WCI  19
$$

NEZ041-046>049-061>064-073>077-083>087-270200-
SOUTH CENTRAL NEBRASKA

CITY           SKY/WX    TMP DP  RH WIND       PRES   REMARKS
GRAND ISLAND   CLEAR     36  19  50 W6        29.94R WCI  31
AURORA         CLEAR     38  18  44 CALM      29.94R
HASTINGS       CLEAR     32  17  54 W5        29.95R WCI  27
HEBRON         PTCLDY    35  14  43 CALM      29.95R
HOLDREGE       CLEAR     35  12  38 CALM      29.93R
KEARNEY *      CLEAR     37  12  35 W3        29.94R
YORK           CLEAR     36  25  64 E5        29.95R WCI  32
$$

NEZ011>018-030>034-042>045-270200-
NORTHEAST NEBRASKA

CITY           SKY/WX    TMP DP  RH WIND       PRES   REMARKS
NORFOLK        CLEAR     31  22  69 S9        29.92S WCI  23
ALBION         PTCLDY    34  21  60 CALM      29.93R
BLAIR          CLEAR     38  24  56 CALM      29.96R
FREMONT        CLEAR     35  24  64 CALM      29.97R
TEKAMAH        CLEAR     31  26  82 S6        29.97R WCI  25
WAYNE          CLEAR     28  23  79 SW5       29.93R WCI  23
$$

NEZ050>053-065>068-078-088>093-270200-
SOUTHEAST NEBRASKA

CITY           SKY/WX    TMP DP  RH WIND       PRES   REMARKS
LINCOLN        CLEAR     33  23  66 E5        29.98R WCI  29
OMAHA EPPLEY   CLEAR     36  25  64 NE3       29.97R
BEATRICE       CLEAR     35  23  60 NE3       29.96R
FALLS CITY     CLEAR     41  23  48 N6        29.96R
NEBRASKA CITY  CLEAR     38  15  39 N5        29.96R WCI  35
PLATTSMOUTH    CLEAR     36  18  47 CALM      29.96R
$$

NEZ044-045-051>053-067-270200-
OMAHA AREA

CITY           SKY/WX    TMP DP  RH WIND       PRES   REMARKS
OMAHA EPPLEY   CLEAR     36  25  64 NE3       29.97R
BLAIR          CLEAR     38  24  56 CALM      29.96R
FREMONT        CLEAR     35  24  64 CALM      29.97R
MILLARD        CLEAR     38  24  59 CALM      29.97R
OFFUTT AFB     CLEAR     32  21  63 CALM      29.97R
PLATTSMOUTH    CLEAR     36  18  47 CALM      29.96R
WAHOO          FAIR      35  26  70 CALM      29.97R
$$




USA.gov is the U.S. government's official web portal to all federal, state and local government web resources and services.